Regional Weather Roundup
Issued by NWS Cleveland, OH

Home | Current Version | Previous Version | Graphics & Text | Print | Product List | Glossary On
Versions: 1 2 3 4 5 6 7 8 9 10 11 12 13 14 15 16 17 18 19 20 21 22 23 24 25 26 27 28 29 30 31 32 33 34 35 36 37 38 39 40 41 42 43 44 45 46 47 48 49 50
000
ASUS41 KCLE 240302
RWRCLE
OHIO REGIONAL WEATHER ROUNDUP
NATIONAL WEATHER SERVICE CLEVELAND, OH
1000 PM EST THU NOV 23 2017

NOTE: "FAIR" INDICATES FEW OR NO CLOUDS BELOW 12,000 FEET WITH NO
SIGNIFICANT WEATHER AND/OR OBSTRUCTIONS TO VISIBILITY.

OHZ001>008-015>018-024>027-034-035-043-044-240400-
   NORTHWEST OHIO

CITY           SKY/WX    TMP DP  RH WIND       PRES   REMARKS
DEFIANCE       CLEAR     31  24  75 S6        29.99F WCI  25
FINDLAY        CLEAR     31  23  72 S6        30.00S WCI  25
TOLEDO EXPRESS CLEAR     31  27  85 S5        30.00S WCI  26
TOLEDO EXEC    CLOUDY    34  26  72 S6        30.01S WCI  29
LIMA           CLEAR     32  25  75 SW3       30.01R
$$

OHZ009>014-019>023-028>033-038-089-240400-
   NORTHEAST OHIO

CITY           SKY/WX    TMP DP  RH WIND       PRES   REMARKS
CLE-HOPKINS    PTCLDY    34  24  67 S7        30.04R WCI  28
CLE-LAKEFRONT  PTCLDY    37  23  56 S9        30.02R
CUY CO. ARPT   PTCLDY    36  25  64 SW7       30.02R
LORAIN-ELYRIA  CLOUDY    31  21  66 SW7       30.03R WCI  24
ASHTABULA      CLOUDY    37  25  61 SW6       30.01R
AKRON-CANTON   CLEAR     31  21  66 SW6       30.01S WCI  25
WOOSTER        CLEAR     29  23  78 CALM      30.02R
MANSFIELD      CLEAR     30  23  75 SW6       30.01R WCI  24
YOUNGSTOWN     CLOUDY    36  22  56 SW8       30.00S
$$

OHZ042-051>053-060>062-070>072-077>081-240400-
  SOUTHWEST OHIO

CITY           SKY/WX    TMP DP  RH WIND       PRES   REMARKS
CINC-COVINGTON CLEAR     35  25  66 SW5       30.02S
CINC-LUNKEN    CLEAR     29  26  89 CALM      30.06R
HAMILTON       CLEAR     30  26  85 CALM      30.04R
DAYTON         CLEAR     33  25  72 SW5       30.02R WCI  29
WRIGHT-PAT AFB CLEAR     33  23  67 CALM      30.02R
DAYTON GENERAL CLEAR     34  23  64 S5        30.01R WCI  30
WILMINGTON     CLEAR     32  25  75 S5        30.01R WCI  27
$$

OHZ036-037-039>041-045>050-054>059-063>069-073>076-082>088-240400-
  CENTRAL AND SOUTHEAST OHIO

CITY           SKY/WX    TMP DP  RH WIND       PRES   REMARKS
COLUMBUS       CLEAR     32  25  75 CALM      30.02S
OSU AIRPORT    CLEAR     33  26  75 CALM      30.02R
BOLTON FIELD   CLEAR     30  24  78 CALM      30.02S
RICKENBACK AFB CLEAR     32  23  69 CALM      30.02S
NEWARK         CLEAR     29  23  78 CALM      30.02S
MARION         CLEAR     30  24  78 S3        30.03R
LANCASTER      CLEAR     27  24  89 CALM      30.03R
ZANESVILLE     CLEAR     29  22  75 CALM      30.03S
NEW PHILLY     NOT AVBL
$$



USA.gov is the U.S. government's official web portal to all federal, state and local government web resources and services.